Flag for Germany Weather past 2 weeks in Wegberg, North Rhine-Westphalia, Germany

Now
79 °F

Clear.


Feels Like: 79 °F
Forecast: 65 / 89 °F
Wind: 6 mph from East

Location: Monchengladbach Airport

Current Time: Aug 2, 2015 at 10:33:25 PM

Latest Report: Aug 2, 2015 at 7:50 PM


Visibility: 10 mi

Pressure: 30.04 "Hg

Humidity: 32%

Dew point: 46 °F

Location of WegbergLocation

Historic Weather in Wegberg — Graph

°F

Wegberg temperature yesterday

Maximum temperature yesterday: 77 °F (at 4:50 PM)
Minimum temperature yesterday: 57 °F (at 7:50 AM)
Average temperature yesterday: 70 °F

Past Weeks' High & Low Weather Summary

 TemperatureHumidityPressure
High81 °F (Aug 2, 4:50 PM)100% (Jul 20, 7:50 AM)30.15 "Hg (Jul 20, 7:50 AM)
Low54 °F (Jul 31, 8:20 AM)24% (Aug 2, 4:50 PM)29.50 "Hg (Jul 25, 7:50 AM)
Average67 °F64%29.89 "Hg
* Reported Jul 18 7:20 PM — Aug 2 7:50 PM, Wegberg, Weather by CustomWeather, © 2015

Note: Actual official high and low records may vary slightly from our data, if they occured in-between our weather recording intervals... More about our weather records

Advertising

Wegberg weather history for previous 24 hours

 ConditionsComfort  
Time TempWeatherWind HumidityBarometerVisibility
7:50 PM
Sun, Aug 2
79 °FClear.6 mph32%30.04 "Hg10 mi
7:20 PM79 °FClear.7 mph30%30.04 "Hg10 mi
6:50 PM81 °FClear.3 mph26%30.04 "Hg10 mi
6:20 PM81 °FPassing clouds.6 mph24%30.07 "HgN/A
5:50 PM81 °FClear.3 mph24%30.07 "Hg10 mi
5:20 PM81 °FClear.3 mph26%30.07 "Hg10 mi
4:50 PM81 °FClear.5 mph24%30.07 "Hg10 mi
4:20 PM79 °FClear.3 mph26%30.09 "Hg10 mi
3:50 PM79 °FClear.6 mph30%30.09 "Hg10 mi
3:20 PM79 °FClear.5 mph28%30.09 "Hg10 mi
2:50 PM79 °FClear.3 mph30%30.09 "Hg10 mi
2:20 PM77 °FClear.5 mph32%30.12 "Hg10 mi
1:50 PM75 °FClear.3 mph34%30.12 "Hg10 mi
1:20 PM75 °FSunny.2 mph39%30.12 "Hg10 mi
12:50 PM75 °FSunny.5 mph36%30.12 "Hg10 mi
12:20 PM73 °FSunny.2 mph38%30.15 "Hg10 mi
11:50 AM73 °FPassing clouds.6 mph38%30.15 "HgN/A
11:20 AM72 °FSunny.2 mph38%30.15 "Hg10 mi
10:50 AM72 °FSunny.2 mph44%30.15 "Hg10 mi
10:20 AM72 °FSunny.2 mph50%30.15 "Hg10 mi
9:50 AM68 °FSunny.2 mph60%30.12 "Hg10 mi
9:20 AM66 °FSunny.2 mph68%30.12 "Hg10 mi
8:50 AM63 °FSunny.1 mph77%30.12 "Hg10 mi
8:20 AM59 °FSunny.2 mph88%30.12 "Hg10 mi
7:50 AM55 °FSunny.2 mph100%30.12 "Hg10 mi
Weather by CustomWeather, © 2015

See weather overviewHow to use our weather pages